When you browse on this site, cookies collect data to enhance your experience and personalize the content and advertising you see.
Visit our Privacy Policy to learn more. By continuing to use the site, you agree to this use of cookies and data.

Hourly Weather Tema

Today, 13 August, Thursday

Time Temperature Precipitation Wind Pressure Humidity
00:00 +26°C° 0 mm 3 mps 759 mmHg 78%
01:00 +25°C° 0 mm 3 mps 759 mmHg 79%
02:00 +25°C° 0 mm 3 mps 758 mmHg 80%
03:00 +25°C° 0 mm 4 mps 758 mmHg 81%
04:00 +25°C° 0 mm 4 mps 759 mmHg 81%
05:00 +25°C° 0 mm 4 mps 759 mmHg 81%
06:00 +23°C° 0 mm 4 mps 759 mmHg 81%
07:00 +26°C° 0 mm 4 mps 759 mmHg 74%
08:00 +27°C° 0 mm 4 mps 760 mmHg 68%
09:00 +29°C° 0 mm 4 mps 760 mmHg 61%
10:00 +30°C° 0 mm 4 mps 759 mmHg 58%
11:00 +32°C° 0 mm 5 mps 759 mmHg 55%
12:00 +33°C° 0 mm 5 mps 759 mmHg 52%
13:00 +33°C° 0 mm 5 mps 758 mmHg 54%
14:00 +32°C° 0 mm 6 mps 758 mmHg 56%
15:00 +32°C° 0 mm 6 mps 757 mmHg 58%
16:00 +30°C° 0 mm 6 mps 757 mmHg 62%
17:00 +28°C° 0 mm 6 mps 757 mmHg 67%
18:00 +27°C° 0 mm 6 mps 757 mmHg 72%
19:00 +27°C° 0 mm 6 mps 757 mmHg 73%
20:00 +27°C° 0 mm 5 mps 758 mmHg 74%
21:00 +26°C° 0 mm 5 mps 758 mmHg 75%
22:00 +26°C° 0 mm 5 mps 758 mmHg 76%
23:00 +26°C° 0 mm 5 mps 758 mmHg 77%

Tomorrow, 14 August, Friday

Time Temperature Precipitation Wind Pressure Humidity
00:00 +26°C° 0 mm 5 mps 758 mmHg 78%
01:00 +26°C° 0 mm 5 mps 758 mmHg 78%
02:00 +25°C° 0 mm 5 mps 757 mmHg 79%
03:00 +25°C° 0 mm 5 mps 757 mmHg 80%
04:00 +25°C° 0 mm 5 mps 757 mmHg 80%
05:00 +25°C° 0 mm 5 mps 758 mmHg 81%
06:00 +25°C° 0 mm 5 mps 758 mmHg 81%
07:00 +26°C° 0 mm 5 mps 758 mmHg 75%
08:00 +27°C° 0 mm 5 mps 758 mmHg 69%
09:00 +29°C° 0 mm 5 mps 759 mmHg 63%
10:00 +30°C° 0 mm 6 mps 759 mmHg 60%
11:00 +32°C° 0 mm 6 mps 758 mmHg 56%
12:00 +33°C° 0 mm 6 mps 758 mmHg 53%
13:00 +32°C° 0 mm 7 mps 757 mmHg 55%
14:00 +32°C° 0 mm 7 mps 757 mmHg 57%
15:00 +31°C° 0 mm 8 mps 756 mmHg 59%
16:00 +29°C° 0 mm 8 mps 756 mmHg 63%
17:00 +28°C° 0 mm 8 mps 756 mmHg 66%
18:00 +28°C° 0 mm 8 mps 756 mmHg 70%
19:00 +27°C° 0 mm 8 mps 756 mmHg 71%
20:00 +27°C° 0 mm 8 mps 757 mmHg 72%
21:00 +27°C° 0 mm 8 mps 757 mmHg 73%
22:00 +27°C° 0 mm 8 mps 757 mmHg 73%
23:00 +27°C° 0 mm 7 mps 757 mmHg 74%

Day after tomorrow, 15 August, Saturday

Time Temperature Precipitation Wind Pressure Humidity
00:00 +26°C° 0 mm 7 mps 757 mmHg 75%
01:00 +26°C° 0 mm 7 mps 757 mmHg 75%
02:00 +26°C° 0 mm 7 mps 757 mmHg 75%
03:00 +26°C° 0 mm 7 mps 757 mmHg 75%
04:00 +26°C° 0 mm 7 mps 757 mmHg 74%
05:00 +26°C° 0 mm 7 mps 757 mmHg 74%
06:00 +26°C° 0 mm 7 mps 758 mmHg 74%
07:00 +27°C° 0.1 mm 7 mps 758 mmHg 72%
08:00 +27°C° 0.1 mm 6 mps 758 mmHg 71%
09:00 +27°C° 0.1 mm 6 mps 759 mmHg 70%
10:00 +27°C° 0 mm 6 mps 759 mmHg 68%
11:00 +28°C° 0 mm 6 mps 758 mmHg 67%
12:00 +28°C° 0 mm 6 mps 758 mmHg 65%
13:00 +28°C° 0 mm 6 mps 758 mmHg 64%
14:00 +29°C° 0 mm 7 mps 757 mmHg 63%
15:00 +29°C° 0 mm 7 mps 756 mmHg 62%
16:00 +29°C° 0 mm 7 mps 756 mmHg 62%
17:00 +28°C° 0 mm 7 mps 756 mmHg 63%
18:00 +28°C° 0 mm 6 mps 756 mmHg 63%
19:00 +28°C° 0 mm 6 mps 757 mmHg 65%
20:00 +27°C° 0 mm 6 mps 757 mmHg 67%
21:00 +27°C° 0 mm 6 mps 757 mmHg 70%
22:00 +27°C° 0 mm 6 mps 757 mmHg 71%
23:00 +26°C° 0 mm 6 mps 757 mmHg 71%

16 August, Sunday

Time Temperature Precipitation Wind Pressure Humidity
00:00 +26°C° 0 mm 5 mps 758 mmHg 72%
01:00 +26°C° 0.1 mm 5 mps 757 mmHg 73%
02:00 +25°C° 0.1 mm 5 mps 757 mmHg 75%
03:00 +25°C° 0.1 mm 5 mps 756 mmHg 76%
04:00 +25°C° 0.1 mm 5 mps 757 mmHg 79%
05:00 +23°C° 0.1 mm 5 mps 757 mmHg 81%
06:00 +23°C° 0.1 mm 4 mps 758 mmHg 84%
07:00 +26°C° 0 mm 4 mps 758 mmHg 76%
08:00 +28°C° 0 mm 4 mps 758 mmHg 68%
09:00 +29°C° 0 mm 4 mps 759 mmHg 59%
10:00 +30°C° 0 mm 5 mps 758 mmHg 58%
11:00 +30°C° 0 mm 5 mps 758 mmHg 57%
12:00 +32°C° 0 mm 5 mps 758 mmHg 55%
13:00 +32°C° 0 mm 6 mps 757 mmHg 55%
14:00 +32°C° 0 mm 6 mps 757 mmHg 55%
15:00 +32°C° 0 mm 6 mps 756 mmHg 55%
16:00 +30°C° 0 mm 6 mps 756 mmHg 61%
17:00 +29°C° 0 mm 6 mps 756 mmHg 66%
18:00 +27°C° 0 mm 6 mps 756 mmHg 71%
19:00 +27°C° 0 mm 6 mps 757 mmHg 73%
20:00 +26°C° 0 mm 5 mps 757 mmHg 75%
21:00 +26°C° 0 mm 5 mps 758 mmHg 77%
22:00 +26°C° 0 mm 5 mps 758 mmHg 78%
23:00 +26°C° 0 mm 5 mps 758 mmHg 78%

17 August, Monday

Time Temperature Precipitation Wind Pressure Humidity
00:00 +24°C° 0 mm 6 mps 758 mmHg 79%
01:00 +25°C° 0 mm 5 mps 757 mmHg 79%
02:00 +25°C° 0 mm 5 mps 757 mmHg 80%
03:00 +25°C° 0 mm 5 mps 757 mmHg 80%
04:00 +25°C° 0 mm 5 mps 757 mmHg 80%
05:00 +25°C° 0 mm 5 mps 757 mmHg 80%
06:00 +25°C° 0 mm 5 mps 758 mmHg 80%
07:00 +25°C° 0 mm 5 mps 758 mmHg 76%
08:00 +26°C° 0 mm 5 mps 758 mmHg 72%
09:00 +27°C° 0 mm 5 mps 759 mmHg 68%
10:00 +28°C° 0 mm 5 mps 758 mmHg 64%
11:00 +29°C° 0 mm 5 mps 758 mmHg 61%
12:00 +30°C° 0 mm 5 mps 758 mmHg 57%
13:00 +30°C° 0 mm 5 mps 757 mmHg 56%
14:00 +30°C° 0 mm 6 mps 757 mmHg 55%
15:00 +32°C° 0 mm 6 mps 756 mmHg 54%
16:00 +29°C° 0 mm 6 mps 756 mmHg 59%
17:00 +28°C° 0 mm 6 mps 756 mmHg 64%
18:00 +27°C° 0 mm 7 mps 756 mmHg 68%
19:00 +26°C° 0 mm 6 mps 757 mmHg 70%
20:00 +26°C° 0 mm 6 mps 757 mmHg 71%
21:00 +26°C° 0 mm 6 mps 758 mmHg 73%
22:00 +26°C° 0 mm 6 mps 758 mmHg 74%
23:00 +24°C° 0 mm 6 mps 758 mmHg 76%

18 August, Tuesday

Time Temperature Precipitation Wind Pressure Humidity
00:00 +24°C° 0 mm 6 mps 758 mmHg 78%
01:00 +24°C° 0 mm 6 mps 758 mmHg 77%
02:00 +24°C° 0 mm 6 mps 757 mmHg 77%
03:00 +24°C° 0 mm 7 mps 757 mmHg 76%
04:00 +24°C° 0 mm 6 mps 757 mmHg 76%
05:00 +24°C° 0 mm 6 mps 757 mmHg 76%
06:00 +25°C° 0 mm 5 mps 758 mmHg 76%
07:00 +26°C° 0 mm 5 mps 758 mmHg 69%
08:00 +27°C° 0 mm 5 mps 758 mmHg 63%
09:00 +29°C° 0 mm 5 mps 759 mmHg 57%
10:00 +30°C° 0 mm 5 mps 758 mmHg 53%
11:00 +32°C° 0 mm 6 mps 758 mmHg 50%
12:00 +33°C° 0 mm 6 mps 757 mmHg 47%
13:00 +33°C° 0 mm 6 mps 756 mmHg 49%
14:00 +32°C° 0 mm 7 mps 756 mmHg 51%
15:00 +32°C° 0 mm 7 mps 755 mmHg 53%
16:00 +30°C° 0 mm 7 mps 755 mmHg 59%
17:00 +28°C° 0 mm 7 mps 755 mmHg 64%
18:00 +27°C° 0 mm 7 mps 755 mmHg 69%
19:00 +27°C° 0 mm 7 mps 755 mmHg 71%
20:00 +27°C° 0 mm 6 mps 756 mmHg 72%
21:00 +26°C° 0 mm 6 mps 756 mmHg 74%
22:00 +26°C° 0 mm 6 mps 756 mmHg 75%
23:00 +26°C° 0 mm 6 mps 756 mmHg 76%
Show more